Spencer, IA

3:11 PM CST on March 01, 2017 (GMT -0600)
Spencer Municipal

Weather History for KSPW - March, 2013

Change the Weather History Date:

Friday, March 1, 2013

  Actual Average Record
Temperature  
Mean Temperature 20 °F -  
Max Temperature 25 °F 38 °F 68 °F (1992)
Min Temperature 14 °F 18 °F -6 °F (2014)
Degree Days  
Heating Degree Days 45    
Moisture  
Dew Point 15 °F    
Average Humidity 76    
Maximum Humidity 88    
Minimum Humidity 66    
Precipitation  
Precipitation 0.00 in - - ()
Sea Level Pressure  
Sea Level Pressure 30.33 in    
Wind  
Wind Speed 11 mph (North)    
Max Wind Speed 15 mph    
Max Gust Speed -    
Visibility 9 miles    
Events Snow    
Averages and records for this station are not official NWS values.
T = Trace of Precipitation, MM = Missing Value Source: NWS Daily Summary

Daily Weather History Graph

Daily Weather History Graph

Search for Another Location

Airport or City:

Trip Planner

Search our weather history database for the weather conditions in past years. The results will help you decide how hot, cold, wet, or windy it might be!

Date:

Astronomy

Mar. 01, 2013 Rise Set
Actual Time 6:56 AM CST 6:10 PM CST
Civil Twilight 6:27 AM CST 6:38 PM CST
Nautical Twilight 5:55 AM CST 7:11 PM CST
Astronomical Twilight 5:22 AM CST 7:44 PM CST
Moon 10:53 PM CST 8:35 AM CST
Length of Visible Light 12h 10m
Length of Day
11h 13m
Waning Gibbous, 83% of the Moon is Illuminated
Mar 1
Waning Gibbous
Mar 4
Last Quarter
Mar 11
New
Mar 19
First Quarter
Mar 27
Full

Hourly Weather History & Observations

Time (CST) Temp. Windchill Dew Point Humidity Pressure Visibility Wind Dir Wind Speed Gust Speed Precip Events Conditions
12:30 AM 24.8 °F 14.6 °F 19.4 °F 80% 30.18 in 5.0 mi NNW 10.4 mph - 0.00 in Snow Light Snow
12:53 AM 24.1 °F 13.7 °F 19.9 °F 84% 30.25 in 5.0 mi NNW 10.4 mph - 0.00 in Snow Light Snow
1:53 AM 24.1 °F 13.7 °F 19.0 °F 81% 30.25 in 3.0 mi NNW 10.4 mph - 0.00 in Snow Light Snow
2:53 AM 23.0 °F 12.4 °F 19.0 °F 85% 30.25 in 7.0 mi NNW 10.4 mph - 0.00 in Snow Light Snow
3:53 AM 23.0 °F 13.1 °F 18.0 °F 81% 30.25 in 9.0 mi North 9.2 mph - 0.00 in Snow Light Snow
4:53 AM 21.9 °F 9.8 °F 16.0 °F 78% 30.27 in 10.0 mi North 12.7 mph - 0.00 in   Overcast
5:53 AM 19.0 °F 6.8 °F 14.0 °F 81% 30.28 in 10.0 mi North 11.5 mph - N/A   Scattered Clouds
6:53 AM 15.1 °F 1.8 °F 10.9 °F 84% 30.30 in 10.0 mi NNW 11.5 mph - N/A   Clear
7:53 AM 16.0 °F 2.3 °F 12.0 °F 84% 30.31 in 10.0 mi North 12.7 mph - N/A   Mostly Cloudy
8:21 AM 17.6 °F 4.3 °F 12.2 °F 79% 30.25 in 10.0 mi North 12.7 mph - N/A   Overcast
8:53 AM 19.0 °F 6.8 °F 14.0 °F 81% 30.33 in 8.0 mi North 11.5 mph - N/A   Overcast
9:53 AM 21.9 °F 11.0 °F 16.0 °F 78% 30.34 in 9.0 mi North 10.4 mph - N/A   Overcast
10:53 AM 24.1 °F 11.5 °F 17.1 °F 75% 30.35 in 10.0 mi NNE 15.0 mph - N/A   Overcast
11:53 AM 25.0 °F 13.6 °F 15.1 °F 66% 30.36 in 10.0 mi North 12.7 mph - N/A   Overcast
12:53 PM 25.0 °F 13.6 °F 16.0 °F 69% 30.35 in 10.0 mi NNE 12.7 mph - N/A   Overcast
1:53 PM 25.0 °F 14.2 °F 15.1 °F 66% 30.35 in 10.0 mi NNE 11.5 mph - N/A   Overcast
2:53 PM 25.0 °F 13.6 °F 15.1 °F 66% 30.35 in 10.0 mi NNE 12.7 mph - N/A   Overcast
3:53 PM 25.0 °F 13.1 °F 15.1 °F 66% 30.35 in 10.0 mi North 13.8 mph - N/A   Overcast
4:53 PM 25.0 °F 15.5 °F 15.1 °F 66% 30.36 in 10.0 mi North 9.2 mph - N/A   Overcast
5:53 PM 23.0 °F 11.7 °F 15.1 °F 72% 30.38 in 10.0 mi NNE 11.5 mph - N/A   Overcast
6:53 PM 21.9 °F 11.0 °F 14.0 °F 72% 30.40 in 10.0 mi North 10.4 mph - N/A   Overcast
7:53 PM 21.9 °F 11.0 °F 14.0 °F 72% 30.41 in 10.0 mi North 10.4 mph - N/A   Overcast
8:53 PM 21.0 °F 9.3 °F 14.0 °F 74% 30.40 in 10.0 mi North 11.5 mph - N/A   Overcast
9:53 PM 21.0 °F 9.9 °F 14.0 °F 74% 30.42 in 10.0 mi North 10.4 mph - N/A   Overcast
10:53 PM 19.0 °F 13.9 °F 12.9 °F 77% 30.40 in 10.0 mi NNW 3.5 mph - N/A   Overcast
11:53 PM 14.0 °F 6.5 °F 10.9 °F 88% 30.40 in 10.0 mi NW 4.6 mph - N/A   Scattered Clouds